RS-44 & BREEZE-KM R/B

Last updated on Wed Oct 22 2025 00:03:09 GMT+0000 (Coordinated Universal Time)

1 44909U 19096E 25294.63351300 .00000034 00000+0 97025-4 0 9997 2 44909 82.5190 138.2384 0217251 342.4114 16.9544 12.79744771271838
UTC large
Height (km)
Speed (km/s)
/
Latitude / Longitude
Inclination (degrees)
Orbital Period (minutes)
Azimuth
Elevation
Range (km)
Doppler Factor

Next 0 passes for location: London (51.5072 / 0.1276)

Sorry there are no passes over London.